When you browse on this site, cookies collect data to enhance your experience and personalize the content and advertising you see.
Visit our Privacy Policy to learn more. By continuing to use the site, you agree to this use of cookies and data.
  • En España
  • Lista de países
  • Para 7 días
  • Temperatura del agua
  • El tiempo en el mapa
  • Informadores
  • user-avatar
    Iniciar sesión

    Tiempo cada hora Atyrau

    Hoy, 20 Septiembre, Viernes

    Tiempo Temperatura Precipitaciones Viento Presión Humedad
    00:00 +16°C° 0 mm 2 mps 766 mmHg 36%
    01:00 +15°C° 0 mm 1 mps 766 mmHg 38%
    02:00 +15°C° 0 mm 1 mps 766 mmHg 40%
    03:00 +14°C° 0 mm 1 mps 766 mmHg 43%
    04:00 +14°C° 0 mm 0 mps 766 mmHg 42%
    05:00 +14°C° 0 mm 0 mps 766 mmHg 42%
    06:00 +14°C° 0 mm 0 mps 766 mmHg 42%
    07:00 +18°C° 0 mm 1 mps 766 mmHg 37%
    08:00 +19°C° 0 mm 1 mps 767 mmHg 32%
    09:00 +21°C° 0 mm 1 mps 767 mmHg 28%
    10:00 +21°C° 0 mm 1 mps 766 mmHg 27%
    11:00 +22°C° 0 mm 1 mps 766 mmHg 26%
    12:00 +23°C° 0 mm 1 mps 765 mmHg 25%
    13:00 +23°C° 0 mm 1 mps 765 mmHg 25%
    14:00 +23°C° 0 mm 1 mps 765 mmHg 26%
    15:00 +24°C° 0 mm 1 mps 764 mmHg 26%
    16:00 +23°C° 0 mm 1 mps 764 mmHg 28%
    17:00 +21°C° 0 mm 2 mps 763 mmHg 30%
    18:00 +20°C° 0 mm 2 mps 763 mmHg 32%
    19:00 +20°C° 0 mm 3 mps 763 mmHg 32%
    20:00 +19°C° 0 mm 3 mps 762 mmHg 32%
    21:00 +19°C° 0 mm 4 mps 762 mmHg 31%
    22:00 +19°C° 0 mm 4 mps 761 mmHg 31%
    23:00 +18°C° 0 mm 4 mps 761 mmHg 31%

    Mañana, 21 Septiembre, Sábado

    Tiempo Temperatura Precipitaciones Viento Presión Humedad
    00:00 +17°C° 0 mm 5 mps 760 mmHg 30%
    01:00 +17°C° 0 mm 5 mps 759 mmHg 30%
    02:00 +17°C° 0 mm 6 mps 759 mmHg 30%
    03:00 +16°C° 0 mm 6 mps 758 mmHg 30%
    04:00 +16°C° 0 mm 6 mps 757 mmHg 31%
    05:00 +16°C° 0 mm 6 mps 757 mmHg 31%
    06:00 +16°C° 0 mm 5 mps 757 mmHg 32%
    07:00 +16°C° 0 mm 7 mps 757 mmHg 35%
    08:00 +17°C° 0 mm 8 mps 756 mmHg 37%
    09:00 +18°C° 0 mm 9 mps 756 mmHg 39%
    10:00 +17°C° 0 mm 10 mps 756 mmHg 42%
    11:00 +17°C° 0 mm 10 mps 756 mmHg 46%
    12:00 +17°C° 0 mm 11 mps 757 mmHg 49%
    13:00 +16°C° 0.3 mm 10 mps 757 mmHg 57%
    14:00 +15°C° 0.3 mm 8 mps 757 mmHg 65%
    15:00 +12°C° 0.3 mm 7 mps 758 mmHg 73%
    16:00 +13°C° 0.2 mm 6 mps 758 mmHg 72%
    17:00 +13°C° 0.2 mm 6 mps 758 mmHg 70%
    18:00 +13°C° 0.2 mm 5 mps 758 mmHg 69%
    19:00 +13°C° 0 mm 6 mps 758 mmHg 69%
    20:00 +13°C° 0 mm 6 mps 759 mmHg 70%
    21:00 +13°C° 0 mm 6 mps 759 mmHg 70%
    22:00 +13°C° 0 mm 6 mps 759 mmHg 69%
    23:00 +11°C° 0 mm 6 mps 759 mmHg 68%

    Pasado mañana, 22 Septiembre, Domingo

    Tiempo Temperatura Precipitaciones Viento Presión Humedad
    00:00 +11°C° 0 mm 6 mps 759 mmHg 67%
    01:00 +11°C° 0 mm 6 mps 760 mmHg 67%
    02:00 +11°C° 0 mm 6 mps 760 mmHg 66%
    03:00 +10°C° 0 mm 6 mps 760 mmHg 65%
    04:00 +10°C° 0 mm 5 mps 760 mmHg 64%
    05:00 +12°C° 0 mm 5 mps 760 mmHg 62%
    06:00 +12°C° 0 mm 5 mps 761 mmHg 60%
    07:00 +13°C° 0 mm 6 mps 761 mmHg 54%
    08:00 +14°C° 0 mm 6 mps 761 mmHg 49%
    09:00 +16°C° 0 mm 7 mps 762 mmHg 43%
    10:00 +16°C° 0 mm 7 mps 762 mmHg 40%
    11:00 +17°C° 0 mm 8 mps 762 mmHg 38%
    12:00 +18°C° 0 mm 8 mps 762 mmHg 35%
    13:00 +18°C° 0 mm 9 mps 762 mmHg 34%
    14:00 +18°C° 0 mm 9 mps 762 mmHg 34%
    15:00 +17°C° 0 mm 10 mps 762 mmHg 33%
    16:00 +16°C° 0 mm 8 mps 762 mmHg 35%
    17:00 +16°C° 0 mm 7 mps 763 mmHg 36%
    18:00 +15°C° 0 mm 6 mps 763 mmHg 37%
    19:00 +14°C° 0 mm 6 mps 763 mmHg 38%
    20:00 +14°C° 0 mm 6 mps 763 mmHg 38%
    21:00 +14°C° 0 mm 5 mps 763 mmHg 38%
    22:00 +14°C° 0 mm 6 mps 762 mmHg 40%
    23:00 +14°C° 0 mm 7 mps 762 mmHg 42%

    23 Septiembre, Lunes

    Tiempo Temperatura Precipitaciones Viento Presión Humedad
    00:00 +15°C° 0 mm 8 mps 762 mmHg 44%
    01:00 +15°C° 0 mm 9 mps 761 mmHg 45%
    02:00 +16°C° 0 mm 10 mps 761 mmHg 46%
    03:00 +17°C° 0 mm 11 mps 760 mmHg 48%
    04:00 +17°C° 0 mm 12 mps 760 mmHg 49%
    05:00 +15°C° 0 mm 12 mps 760 mmHg 50%
    06:00 +15°C° 0 mm 12 mps 759 mmHg 51%
    07:00 +17°C° 0 mm 13 mps 759 mmHg 51%
    08:00 +18°C° 0 mm 14 mps 760 mmHg 50%
    09:00 +19°C° 0 mm 15 mps 760 mmHg 50%
    10:00 +18°C° 0 mm 14 mps 760 mmHg 51%
    11:00 +17°C° 0 mm 14 mps 761 mmHg 53%
    12:00 +17°C° 0 mm 13 mps 761 mmHg 54%
    13:00 +17°C° 0 mm 12 mps 761 mmHg 44%
    14:00 +17°C° 0 mm 12 mps 762 mmHg 33%
    15:00 +17°C° 0 mm 11 mps 762 mmHg 22%
    16:00 +16°C° 0 mm 10 mps 763 mmHg 24%
    17:00 +13°C° 0 mm 8 mps 764 mmHg 25%
    18:00 +13°C° 0 mm 6 mps 764 mmHg 27%
    19:00 +12°C° 0 mm 5 mps 765 mmHg 30%
    20:00 +12°C° 0 mm 4 mps 766 mmHg 33%
    21:00 +11°C° 0 mm 3 mps 766 mmHg 37%
    22:00 +10°C° 0 mm 3 mps 767 mmHg 40%
    23:00 +10°C° 0 mm 3 mps 767 mmHg 43%

    24 Septiembre, Martes

    Tiempo Temperatura Precipitaciones Viento Presión Humedad
    00:00 +9°C° 0 mm 3 mps 767 mmHg 46%
    01:00 +9°C° 0 mm 2 mps 768 mmHg 48%
    02:00 +8°C° 0 mm 2 mps 768 mmHg 50%
    03:00 +9°C° 0 mm 1 mps 768 mmHg 51%
    04:00 +9°C° 0 mm 1 mps 768 mmHg 51%
    05:00 +9°C° 0 mm 1 mps 768 mmHg 51%
    06:00 +9°C° 0 mm 1 mps 769 mmHg 51%
    07:00 +9°C° 0 mm 2 mps 769 mmHg 45%
    08:00 +12°C° 0 mm 2 mps 769 mmHg 39%
    09:00 +14°C° 0 mm 2 mps 769 mmHg 34%
    10:00 +14°C° 0 mm 3 mps 769 mmHg 29%
    11:00 +14°C° 0 mm 3 mps 769 mmHg 25%
    12:00 +16°C° 0 mm 3 mps 769 mmHg 21%
    13:00 +17°C° 0 mm 3 mps 769 mmHg 20%
    14:00 +17°C° 0 mm 3 mps 768 mmHg 19%
    15:00 +17°C° 0 mm 3 mps 768 mmHg 18%
    16:00 +16°C° 0 mm 3 mps 768 mmHg 19%
    17:00 +15°C° 0 mm 2 mps 768 mmHg 20%
    18:00 +15°C° 0 mm 2 mps 768 mmHg 21%
    19:00 +14°C° 0 mm 2 mps 768 mmHg 22%
    20:00 +13°C° 0 mm 2 mps 769 mmHg 23%
    21:00 +13°C° 0 mm 2 mps 769 mmHg 24%
    22:00 +12°C° 0 mm 2 mps 768 mmHg 25%
    23:00 +11°C° 0 mm 3 mps 768 mmHg 25%

    25 Septiembre, Miércoles

    Tiempo Temperatura Precipitaciones Viento Presión Humedad
    00:00 +11°C° 0 mm 3 mps 768 mmHg 25%
    01:00 +11°C° 0 mm 3 mps 768 mmHg 25%
    02:00 +11°C° 0 mm 4 mps 768 mmHg 26%
    03:00 +11°C° 0 mm 4 mps 767 mmHg 26%
    04:00 +11°C° 0 mm 4 mps 767 mmHg 27%
    05:00 +11°C° 0 mm 4 mps 767 mmHg 27%
    06:00 +10°C° 0 mm 5 mps 767 mmHg 27%
    07:00 +12°C° 0 mm 5 mps 767 mmHg 27%
    08:00 +14°C° 0 mm 6 mps 766 mmHg 26%
    09:00 +15°C° 0 mm 7 mps 766 mmHg 25%
    10:00 +17°C° 0 mm 6 mps 766 mmHg 26%
    11:00 +19°C° 0 mm 5 mps 765 mmHg 28%
    12:00 +20°C° 0 mm 5 mps 765 mmHg 29%
    13:00 +20°C° 0 mm 4 mps 764 mmHg 31%
    14:00 +21°C° 0 mm 4 mps 764 mmHg 34%
    15:00 +21°C° 0 mm 4 mps 764 mmHg 36%
    16:00 +20°C° 0 mm 4 mps 764 mmHg 37%
    17:00 +20°C° 0 mm 5 mps 764 mmHg 39%
    18:00 +19°C° 0 mm 5 mps 764 mmHg 40%
    19:00 +19°C° 0 mm 5 mps 764 mmHg 43%
    20:00 +17°C° 0 mm 6 mps 764 mmHg 46%
    21:00 +17°C° 0 mm 6 mps 764 mmHg 49%
    22:00 +16°C° 0 mm 6 mps 764 mmHg 53%
    23:00 +16°C° 0 mm 5 mps 764 mmHg 57%
    Mostrar más